Tracking 25612 objects as of 20-May-2022
HD Live streaming from Space Station
objects crossing your sky now

IUS R/B(2)

Track IUS R/B(2) now!


NORAD ID: 20932
Int'l Code: 1990-095D
Perigee: 36,048.1 km
Apogee: 36,116.0 km
Inclination: 14.9 °
Period: 1,450.9 minutes
Semi major axis: 42453 km
RCS: Unknown
Launch date: November 13, 1990
Source: United States (US)
Launch site: AIR FORCE EASTERN TEST RANGE (AFETR)

Note: This is a ROCKET BODY
aabbcc
Your satellite tracking list
Your tracking list is empty




NASA's NSSDC Master Catalog

Two Line Element Set (TLE):
1 20932U 90095D   22138.61657224 -.00000004  00000-0  00000+0 0  9992
2 20932  14.8800 353.4188 0008001  37.5936 322.4259  0.99252074 10919
Source of the keplerian elements: McCants